Louisville, KY

1:31 PM EST on November 24, 2017 (GMT -0500)
Louisville International-Standiford

Weather History for KSDF - May, 2013

Change the Weather History Date:

Tuesday, May 28, 2013

  Actual Average Record
Temperature  
Mean Temperature 80 °F 70 °F  
Max Temperature 87 °F 80 °F 98 °F (1911)
Min Temperature 73 °F 61 °F 41 °F (1961)
Degree Days  
Heating Degree Days 0 1  
Month to date heating degree days 59 65  
Since 1 July heating degree days 4115 4090  
Cooling Degree Days 15 6  
Month to date cooling degree days 138 109  
Year to date cooling degree days 186 152  
Growing Degree Days 30 (Base 50)    
Moisture  
Dew Point 59 °F    
Average Humidity 51    
Maximum Humidity 64    
Minimum Humidity 37    
Precipitation  
Precipitation 0.00 in 0.16 in 3.31 in (1990)
Month to date precipitation 3.71 4.79  
Year to date precipitation 18.73 19.39  
Snow  
Snow 0.00 in 0.00 in - ()
Month to date snowfall 0.0 0.0  
Since 1 July snowfall 9.8 12.5  
Snow Depth 0.00 in    
Sea Level Pressure  
Sea Level Pressure 29.99 in    
Wind  
Wind Speed 12 mph (SSW)    
Max Wind Speed 24 mph    
Max Gust Speed 32 mph    
Visibility 10 miles    
Events      
T = Trace of Precipitation, MM = Missing Value Source: NWS Daily Summary

Daily Weather History Graph

Daily Weather History Graph

Search for Another Location

Airport or City:

Trip Planner

Search our weather history database for the weather conditions in past years. The results will help you decide how hot, cold, wet, or windy it might be!

Date:

Astronomy

May. 28, 2013 Rise Set
Actual Time 6:23 AM EDT 8:57 PM EDT
Civil Twilight 5:52 AM EDT 9:28 PM EDT
Nautical Twilight 5:14 AM EDT 10:06 PM EDT
Astronomical Twilight 4:31 AM EDT 10:49 PM EDT
Moon No Moon Rise 10:09 AM EDT (5/28)
Length of Visible Light 15h 35m
Length of Day
14h 34m
Waning Gibbous, 83% of the Moon is Illuminated
May 28
Waning Gibbous
May 31
Last Quarter
Jun 8
New
Jun 16
First Quarter
Jun 23
Full

Hourly Weather History & Observations

Time (EDT) Temp. Heat Index Dew Point Humidity Pressure Visibility Wind Dir Wind Speed Gust Speed Precip Events Conditions
12:56 AM 75.0 °F - 57.9 °F 55% 29.96 in 10.0 mi South 11.5 mph - N/A   Scattered Clouds
1:56 AM 75.0 °F - 57.9 °F 55% 29.96 in 10.0 mi SSE 11.5 mph - N/A   Mostly Cloudy
2:56 AM 77.0 °F - 57.9 °F 52% 29.97 in 10.0 mi SW 10.4 mph 18.4 mph N/A   Overcast
3:56 AM 77.0 °F - 59.0 °F 54% 29.99 in 10.0 mi SSW 9.2 mph 18.4 mph N/A   Overcast
4:56 AM 75.9 °F - 59.0 °F 56% 29.99 in 10.0 mi SSW 8.1 mph - N/A   Mostly Cloudy
5:56 AM 73.9 °F - 59.0 °F 59% 29.99 in 10.0 mi SSW 10.4 mph - N/A   Partly Cloudy
6:56 AM 73.0 °F - 59.0 °F 61% 30.01 in 10.0 mi South 8.1 mph - N/A   Mostly Cloudy
7:56 AM 73.0 °F - 60.1 °F 64% 30.03 in 10.0 mi South 8.1 mph - N/A   Mostly Cloudy
8:56 AM 75.0 °F - 60.1 °F 60% 30.03 in 10.0 mi SSW 10.4 mph 18.4 mph N/A   Mostly Cloudy
9:56 AM 78.1 °F - 62.1 °F 58% 30.04 in 10.0 mi SSW 13.8 mph - N/A   Overcast
10:56 AM 80.1 °F 81.7 °F 64.0 °F 58% 30.03 in 10.0 mi SW 13.8 mph - N/A   Overcast
11:56 AM 82.9 °F 82.8 °F 59.0 °F 44% 30.02 in 10.0 mi SW 16.1 mph 26.5 mph N/A   Overcast
12:56 PM 84.0 °F 83.3 °F 57.0 °F 40% 30.01 in 10.0 mi SSW 16.1 mph 27.6 mph N/A   Overcast
1:56 PM 84.0 °F 83.0 °F 55.9 °F 38% 29.99 in 10.0 mi SW 17.3 mph 27.6 mph N/A   Overcast
2:56 PM 86.0 °F 85.4 °F 59.0 °F 40% 29.99 in 10.0 mi SW 12.7 mph 24.2 mph N/A   Overcast
3:56 PM 86.0 °F 85.7 °F 60.1 °F 41% 29.98 in 10.0 mi SSW 11.5 mph 23.0 mph N/A   Overcast
4:56 PM 84.9 °F 84.4 °F 59.0 °F 41% 29.97 in 10.0 mi South 12.7 mph 20.7 mph N/A   Overcast
5:56 PM 84.9 °F 84.4 °F 59.0 °F 41% 29.95 in 10.0 mi South 17.3 mph 27.6 mph N/A   Overcast
6:56 PM 84.0 °F 83.3 °F 57.0 °F 40% 29.94 in 10.0 mi SSW 16.1 mph 25.3 mph N/A   Mostly Cloudy
7:56 PM 82.9 °F 82.6 °F 57.9 °F 42% 29.94 in 10.0 mi South 10.4 mph - N/A   Mostly Cloudy
8:56 PM 81.0 °F 81.0 °F 57.0 °F 44% 29.95 in 10.0 mi SSW 9.2 mph - N/A   Mostly Cloudy
9:56 PM 80.1 °F 80.4 °F 57.0 °F 45% 29.95 in 10.0 mi South 10.4 mph - N/A   Partly Cloudy
10:56 PM 79.0 °F - 57.9 °F 48% 29.97 in 10.0 mi South 10.4 mph - N/A   Partly Cloudy
11:56 PM 78.1 °F - 57.0 °F 48% 29.98 in 10.0 mi South 10.4 mph - N/A   Clear